N8QF Weather Reports


Display with metric or nautical units.
time (UTC)temp
F
wind
direction
speed
MPH
gust
MPH
rain 1hr
in
rain 24hr
in
rain mn
in
humidity
%
barometer
mb
20260504232947 74 226 12.0 21.0 0.00 0.00 0.00 41 1004.6
20260504232446 74 212 10.0 16.0 0.00 0.00 0.00 44 1004.6
20260504231946 74 201 7.0 11.0 0.00 0.00 0.00 46 1004.5
20260504231446 74 201 7.0 11.0 0.00 0.00 0.00 47 1004.8
20260504230946 74 221 8.0 14.0 0.00 0.00 0.00 45 1004.9
20260504230446 74 203 6.0 8.0 0.00 0.00 0.00 46 1004.9
20260504225945 73 195 6.0 9.0 0.00 0.00 0.00 45 1005.0
20260504225445 73 210 6.0 9.0 0.00 0.00 0.00 46 1005.1
20260504224945 73 207 6.0 10.0 0.00 0.00 0.00 45 1005.1
20260504224445 73 214 6.0 10.0 0.00 0.00 0.00 46 1005.2
20260504223944 73 174 6.0 14.0 0.00 0.00 0.00 44 1005.3
20260504223444 73 221 8.0 14.0 0.00 0.00 0.00 44 1005.4
20260504222944 74 214 7.0 12.0 0.00 0.00 0.00 43 1005.3
20260504222444 75 188 6.0 11.0 0.00 0.00 0.00 44 1005.3
20260504221944 74 221 6.0 10.0 0.00 0.00 0.00 48 1005.3
20260504221444 74 224 6.0 11.0 0.00 0.00 0.00 45 1005.4
20260504220943 74 195 6.0 10.0 0.00 0.00 0.00 46 1005.4
20260504220443 73 219 6.0 9.0 0.00 0.00 0.00 44 1005.4
20260504215943 74 221 5.0 8.0 0.00 0.00 0.00 46 1005.2
20260504215440 73 226 6.0 11.0 0.00 0.00 0.00 48 1005.4
20260504214940 72 215 9.0 14.0 0.00 0.00 0.00 45 1005.7
20260504214439 72 214 8.0 14.0 0.00 0.00 0.00 46 1005.8
20260504213939 72 233 9.0 18.0 0.00 0.00 0.00 46 1005.8
20260504213439 72 221 7.0 12.0 0.00 0.00 0.00 47 1005.9
20260504212939 72 215 9.0 15.0 0.00 0.00 0.00 46 1005.9
20260504212439 73 219 9.0 14.0 0.00 0.00 0.00 44 1005.9
20260504211938 73 221 10.0 19.0 0.00 0.00 0.00 47 1006.0
20260504211438 73 240 11.0 19.0 0.00 0.00 0.00 46 1006.1
20260504210938 72 221 10.0 17.0 0.00 0.00 0.00 48 1006.1
20260504210438 72 217 9.0 17.0 0.00 0.00 0.00 46 1006.2
20260504205937 72 225 8.0 15.0 0.00 0.00 0.00 48 1006.3
20260504205437 72 218 7.0 14.0 0.00 0.00 0.00 49 1006.3
20260504204937 72 226 8.0 17.0 0.00 0.00 0.00 48 1006.3
20260504204436 71 210 9.0 20.0 0.00 0.00 0.00 48 1006.5
20260504203936 71 210 8.0 17.0 0.00 0.00 0.00 49 1006.7
20260504203436 71 253 9.0 19.0 0.00 0.00 0.00 48 1006.9
20260504202934 71 232 8.0 15.0 0.00 0.00 0.00 51 1006.9
20260504202434 71 224 7.0 18.0 0.00 0.00 0.00 49 1006.8
20260504201934 71 226 6.0 11.0 0.00 0.00 0.00 52 1006.8
20260504201434 70 217 7.0 12.0 0.00 0.00 0.00 57 1006.9
20260504200934 70 232 7.0 11.0 0.00 0.00 0.00 58 1007.0
20260504200434 69 238 8.0 14.0 0.00 0.00 0.00 57 1006.9
20260504195933 68 183 7.0 12.0 0.00 0.00 0.00 59 1006.9
20260504195433 68 228 5.0 12.0 0.00 0.00 0.00 61 1007.0
20260504194933 67 188 5.0 8.0 0.00 0.00 0.00 63 1007.1
20260504194432 67 203 6.0 9.0 0.00 0.00 0.00 65 1007.3
20260504193929 66 190 5.0 9.0 0.00 0.00 0.00 63 1007.3
20260504193429 66 194 4.0 9.0 0.00 0.00 0.00 65 1007.3
20260504192928 66 217 5.0 10.0 0.00 0.00 0.00 63 1007.1
20260504192428 66 194 7.0 12.0 0.00 0.00 0.00 64 1007.8
20260504191927 66 214 8.0 13.0 0.00 0.00 0.00 64 1007.9
20260504191426 66 200 6.0 12.0 0.00 0.00 0.00 60 1007.6
20260504190926 67 240 7.0 14.0 0.00 0.00 0.00 58 1007.6
20260504190426 67 231 11.0 19.0 0.00 0.00 0.00 56 1008.5
20260504185926 67 217 12.0 20.0 0.00 0.00 0.00 55 1008.6
20260504185423 67 229 12.0 20.0 0.00 0.00 0.00 55 1008.1
20260504184923 68 212 11.0 21.0 0.00 0.00 0.00 53 1008.2
20260504184422 68 225 12.0 24.0 0.00 0.00 0.00 53 1008.0
20260504183922 69 224 11.0 18.0 0.00 0.00 0.00 54 1008.0
20260504183422 69 222 12.0 21.0 0.00 0.00 0.00 54 1007.9
20260504182921 69 212 8.0 13.0 0.00 0.00 0.00 57 1007.6
20260504182421 68 197 11.0 20.0 0.00 0.00 0.00 56 1007.5
20260504181421 71 218 14.0 24.0 0.00 0.00 0.00 48 1007.4
20260504180921 72 225 13.0 22.0 0.00 0.00 0.00 50 1007.2
20260504180420 71 188 10.0 20.0 0.00 0.00 0.00 52 1007.1
20260504175920 70 177 11.0 21.0 0.00 0.00 0.00 54 1007.1
20260504175420 70 132 10.0 17.0 0.00 0.00 0.00 54 1007.1
20260504174919 69 200 9.0 16.0 0.00 0.00 0.00 52 1007.0
20260504174418 69 186 11.0 18.0 0.00 0.00 0.00 53 1007.2
20260504173917 69 224 11.0 19.0 0.00 0.00 0.00 54 1007.3
20260504172917 68 194 9.0 15.0 0.00 0.00 0.00 53 1007.3
20260504172414 68 194 7.0 15.0 0.00 0.00 0.00 54 1007.4
20260504171913 68 190 7.0 12.0 0.00 0.00 0.00 55 1007.3
20260504171413 68 219 9.0 15.0 0.00 0.00 0.00 54 1007.5
20260504170913 68 225 8.0 14.0 0.00 0.00 0.00 57 1007.5
20260504170413 67 224 7.0 12.0 0.00 0.00 0.00 57 1007.5
20260504160410 66 221 7.0 12.0 0.00 0.00 0.00 58 1007.9
20260504150906 62 179 8.0 14.0 0.00 0.00 0.00 58 1008.2
20260504150406 63 222 8.0 14.0 0.00 0.00 0.00 59 1008.1
20260504140903 61 194 8.0 14.0 0.00 0.00 0.00 64 1008.6
20260504140403 60 191 9.0 15.0 0.00 0.00 0.00 61 1008.8
20260504130400 56 141 2.0 5.0 0.00 0.00 0.00 68 1008.8
20260504110349 50 176 1.0 4.0 0.00 0.00 0.00 72 1008.9
20260504100344 48 98 1.0 3.0 0.00 0.00 0.00 75 1009.1
20260504081836 51 148 1.0 3.0 0.00 0.00 0.00 65 1009.8
20260504081336 51 118 1.0 3.0 0.00 0.00 0.00 64 1009.9
20260504080836 51 105 2.0 5.0 0.00 0.00 0.00 64 1009.9
20260504080336 51 153 2.0 4.0 0.00 0.00 0.00 64 1009.9
20260504070330 52 150 3.0 6.0 0.00 0.00 0.00 63 1010.2
20260504050310 53 181 3.0 6.0 0.00 0.00 0.00 60 1011.3
20260504045810 53 167 3.0 6.0 0.00 0.00 0.00 60 1011.3
20260504045308 53 181 3.0 7.0 0.00 0.00 0.00 59 1011.4
20260504044808 53 203 4.0 7.0 0.00 0.00 0.00 59 1011.5
20260504044308 53 180 5.0 10.0 0.00 0.00 0.00 58 1011.4
20260504043807 53 181 4.0 8.0 0.00 0.00 0.00 58 1011.5
20260504043307 53 155 4.0 9.0 0.00 0.00 0.00 58 1011.5
20260504042307 54 158 3.0 6.0 0.00 0.00 0.00 56 1011.6
20260504041807 54 169 4.0 6.0 0.00 0.00 0.00 56 1011.6
20260504041305 54 152 5.0 8.0 0.00 0.00 0.00 55 1011.7
20260504040804 54 149 4.0 9.0 0.00 0.00 0.00 55 1011.7
20260504040302 55 173 5.0 8.0 0.00 0.00 0.00 55 1011.8
20260504035802 55 156 5.0 8.0 0.00 0.00 0.00 53 1011.7
20260504035301 55 184 6.0 9.0 0.00 0.00 0.00 53 1011.8
20260504034801 55 190 5.0 9.0 0.00 0.00 0.00 53 1011.8
20260504034301 56 200 5.0 9.0 0.00 0.00 0.00 52 1011.9
20260504033801 56 183 5.0 10.0 0.00 0.00 0.00 52 1012.0
20260504033300 56 176 6.0 9.0 0.00 0.00 0.00 51 1012.0
20260504032758 56 201 5.0 9.0 0.00 0.00 0.00 51 1011.9
20260504032258 56 176 5.0 10.0 0.00 0.00 0.00 51 1011.9
20260504031758 56 173 5.0 7.0 0.00 0.00 0.00 50 1012.0
20260504031257 57 148 5.0 9.0 0.00 0.00 0.00 49 1012.0
20260504030757 57 200 5.0 7.0 0.00 0.00 0.00 49 1012.0
20260504030257 57 194 6.0 10.0 0.00 0.00 0.00 49 1012.1
20260504025757 57 194 6.0 9.0 0.00 0.00 0.00 49 1012.2
20260504025256 57 162 5.0 7.0 0.00 0.00 0.00 49 1012.2
20260504024256 57 221 5.0 9.0 0.00 0.00 0.00 49 1012.3
20260504023756 57 219 5.0 11.0 0.00 0.00 0.00 47 1012.3
20260504023255 57 193 5.0 7.0 0.00 0.00 0.00 48 1012.3
20260504022755 58 180 4.0 8.0 0.00 0.00 0.00 48 1012.3
20260504022255 58 198 5.0 9.0 0.00 0.00 0.00 46 1012.3
20260504021755 58 177 4.0 8.0 0.00 0.00 0.00 47 1012.3
20260504021255 58 188 6.0 13.0 0.00 0.00 0.00 46 1012.3
20260504020755 58 229 5.0 9.0 0.00 0.00 0.00 47 1012.4
20260504020254 58 200 4.0 8.0 0.00 0.00 0.00 46 1012.2
20260504015753 58 233 4.0 7.0 0.00 0.00 0.00 46 1012.3
20260504015250 58 194 3.0 5.0 0.00 0.00 0.00 44 1012.2
20260504014750 58 176 2.0 5.0 0.00 0.00 0.00 45 1012.2
20260504014250 58 203 3.0 4.0 0.00 0.00 0.00 44 1012.1
20260504013750 58 200 3.0 6.0 0.00 0.00 0.00 44 1012.0
20260504013249 58 197 3.0 5.0 0.00 0.00 0.00 43 1011.9
20260504012749 58 187 3.0 5.0 0.00 0.00 0.00 44 1011.9
20260504012249 58 195 3.0 5.0 0.00 0.00 0.00 43 1011.9
20260504011749 58 200 4.0 6.0 0.00 0.00 0.00 43 1011.9
20260504011246 58 172 3.0 6.0 0.00 0.00 0.00 44 1011.9
20260504010746 58 166 3.0 5.0 0.00 0.00 0.00 44 1011.9
20260504010246 58 155 4.0 6.0 0.00 0.00 0.00 43 1011.9
20260504005746 58 191 4.0 7.0 0.00 0.00 0.00 43 1012.0
20260504005245 58 208 5.0 7.0 0.00 0.00 0.00 44 1012.0
20260504004745 58 191 3.0 7.0 0.00 0.00 0.00 44 1011.9
20260504004245 58 180 3.0 6.0 0.00 0.00 0.00 45 1011.9
20260504003745 58 197 3.0 5.0 0.00 0.00 0.00 44 1011.8
20260504003245 58 181 4.0 7.0 0.00 0.00 0.00 44 1011.7
20260504002744 59 207 4.0 8.0 0.00 0.00 0.00 43 1011.9
20260504002243 59 184 4.0 7.0 0.00 0.00 0.00 43 1011.9
20260504001743 59 226 5.0 9.0 0.00 0.00 0.00 42 1011.9
20260504001243 59 184 4.0 9.0 0.00 0.00 0.00 42 1011.8
20260504000742 59 207 5.0 9.0 0.00 0.00 0.00 40 1011.8
20260504000242 59 207 6.0 8.0 0.00 0.00 0.00 42 1011.8
20260503235739 59 184 6.0 10.0 0.00 0.00 0.00 40 1011.7
20260503235238 59 173 6.0 11.0 0.00 0.00 0.00 42 1011.6
20260503234737 59 204 6.0 10.0 0.00 0.00 0.00 40 1011.6
20260503234236 59 193 7.0 11.0 0.00 0.00 0.00 39 1011.5
20260503233735 59 186 6.0 10.0 0.00 0.00 0.00 41 1011.6
20260503233235 59 188 6.0 10.0 0.00 0.00 0.00 41 1011.7